owner,sensor,date,latitude,longitude,vertical_datum,direction_of_sea_water_velocity,sea_water_speed,upward_sea_water_velocity,qcFlag 
TABS,ioos:station:TABS:E:1,1995-07-01T00:00:00Z,27.3383,-97.1000,2.0,144.5140931,2.566748916,-99999.0,'11133222,11111222,99999999' 
TABS,ioos:station:TABS:E:1,1995-07-01T00:30:00Z,27.3383,-97.1000,2.0,161.3719699,0.939201789,-99999.0,'11133222,11111222,99999999' 
TABS,ioos:station:TABS:E:1,1995-07-01T01:00:00Z,27.3383,-97.1000,2.0,203.9423833,2.932319901,-99999.0,'11133222,11111222,99999999' 
TABS,ioos:station:TABS:E:1,1995-07-01T01:30:00Z,27.3383,-97.1000,2.0,284.9078668,4.625689138,-99999.0,'11133222,11111222,99999999' 
TABS,ioos:station:TABS:E:1,1995-07-01T02:00:00Z,27.3383,-97.1000,2.0,262.3545837,4.510088691,-99999.0,'11133222,11111222,99999999' 
TABS,ioos:station:TABS:E:1,1995-07-01T02:30:00Z,27.3383,-97.1000,2.0,278.409313,8.137481183,-99999.0,'11133222,11111222,99999999' 
TABS,ioos:station:TABS:E:1,1995-07-01T03:00:00Z,27.3383,-97.1000,2.0,280.8831804,7.89193259,-99999.0,'11133222,11111222,99999999' 
TABS,ioos:station:TABS:E:1,1995-07-01T03:30:00Z,27.3383,-97.1000,2.0,284.8190929,10.47851612,-99999.0,'11111222,11111222,99999999' 
TABS,ioos:station:TABS:E:1,1995-07-01T04:00:00Z,27.3383,-97.1000,2.0,281.0926945,15.48936409,-99999.0,'11111222,11111222,99999999' 
TABS,ioos:station:TABS:E:1,1995-07-01T04:30:00Z,27.3383,-97.1000,2.0,281.0215045,12.44961044,-99999.0,'11111222,11111222,99999999' 
TABS,ioos:station:TABS:E:1,1995-07-01T05:00:00Z,27.3383,-97.1000,2.0,286.5757316,14.61742111,-99999.0,'11111222,11111222,99999999' 
TABS,ioos:station:TABS:E:1,1995-07-01T05:30:00Z,27.3383,-97.1000,2.0,290.1479752,19.0454194,-99999.0,'11111222,11111222,99999999' 
TABS,ioos:station:TABS:E:1,1995-07-01T06:00:00Z,27.3383,-97.1000,2.0,295.3801519,19.45795467,-99999.0,'11111222,11111222,99999999' 
TABS,ioos:station:TABS:E:1,1995-07-01T06:30:00Z,27.3383,-97.1000,2.0,307.0497875,19.78409715,-99999.0,'11111222,11111222,99999999' 
TABS,ioos:station:TABS:E:1,1995-07-01T07:00:00Z,27.3383,-97.1000,2.0,318.7973665,19.00632526,-99999.0,'11111222,11111222,99999999' 
TABS,ioos:station:TABS:E:1,1995-07-01T07:30:00Z,27.3383,-97.1000,2.0,322.5200823,22.53127826,-99999.0,'11111222,11111222,99999999' 
TABS,ioos:station:TABS:E:1,1995-07-01T08:00:00Z,27.3383,-97.1000,2.0,329.9553905,22.03011121,-99999.0,'11111222,11111222,99999999' 
TABS,ioos:station:TABS:E:1,1995-07-01T08:30:00Z,27.3383,-97.1000,2.0,338.5690933,25.28851913,-99999.0,'11111222,11111222,99999999' 
TABS,ioos:station:TABS:E:1,1995-07-01T09:00:00Z,27.3383,-97.1000,2.0,341.9693773,26.00721823,-99999.0,'11111222,11111222,99999999' 
TABS,ioos:station:TABS:E:1,1995-07-01T09:30:00Z,27.3383,-97.1000,2.0,349.2106785,25.48045918,-99999.0,'11111222,11111222,99999999' 
TABS,ioos:station:TABS:E:1,1995-07-01T10:00:00Z,27.3383,-97.1000,2.0,356.0051678,25.69243079,-99999.0,'11111222,11111222,99999999' 
TABS,ioos:station:TABS:E:1,1995-07-01T10:30:00Z,27.3383,-97.1000,2.0,353.4600917,28.7974044,-99999.0,'11111222,11111222,99999999' 
TABS,ioos:station:TABS:E:1,1995-07-01T11:00:00Z,27.3383,-97.1000,2.0,1.61400087,31.60253471,-99999.0,'11111222,11111222,99999999' 
TABS,ioos:station:TABS:E:1,1995-07-01T11:30:00Z,27.3383,-97.1000,2.0,18.04535589,27.89193432,-99999.0,'11111222,11111222,99999999' 
TABS,ioos:station:TABS:E:1,1995-07-01T12:00:00Z,27.3383,-97.1000,2.0,29.4112821,32.15406973,-99999.0,'11111222,11111222,99999999' 
TABS,ioos:station:TABS:E:1,1995-07-01T12:30:00Z,27.3383,-97.1000,2.0,31.48047126,34.23936915,-99999.0,'11111222,11111222,99999999' 
TABS,ioos:station:TABS:E:1,1995-07-01T13:00:00Z,27.3383,-97.1000,2.0,43.24297642,34.36033323,-99999.0,'11111222,11111222,99999999' 
TABS,ioos:station:TABS:E:1,1995-07-01T13:30:00Z,27.3383,-97.1000,2.0,53.93421408,33.92133989,-99999.0,'11111222,11111222,99999999' 
TABS,ioos:station:TABS:E:1,1995-07-01T14:00:00Z,27.3383,-97.1000,2.0,60.69451135,33.4854013,-99999.0,'11111222,11111222,99999999' 
TABS,ioos:station:TABS:E:1,1995-07-01T14:30:00Z,27.3383,-97.1000,2.0,66.86909312,33.37286622,-99999.0,'11111222,11111222,99999999' 
TABS,ioos:station:TABS:E:1,1995-07-01T15:00:00Z,27.3383,-97.1000,2.0,77.0858829,29.35243942,-99999.0,'11111222,11111222,99999999' 
TABS,ioos:station:TABS:E:1,1995-07-01T15:30:00Z,27.3383,-97.1000,2.0,82.11256908,30.38747933,-99999.0,'11111222,11111222,99999999' 
TABS,ioos:station:TABS:E:1,1995-07-01T16:00:00Z,27.3383,-97.1000,2.0,85.14327469,28.11093204,-99999.0,'11111222,11111222,99999999' 
TABS,ioos:station:TABS:E:1,1995-07-01T16:30:00Z,27.3383,-97.1000,2.0,91.96579691,25.94526932,-99999.0,'11111222,11111222,99999999' 
TABS,ioos:station:TABS:E:1,1995-07-01T17:00:00Z,27.3383,-97.1000,2.0,108.1849338,21.01985966,-99999.0,'11111222,11111222,99999999' 
TABS,ioos:station:TABS:E:1,1995-07-01T17:30:00Z,27.3383,-97.1000,2.0,114.9787045,19.06307688,-99999.0,'11111222,11111222,99999999' 
TABS,ioos:station:TABS:E:1,1995-07-01T18:00:00Z,27.3383,-97.1000,2.0,116.1725593,19.58841494,-99999.0,'11111222,11111222,99999999' 
TABS,ioos:station:TABS:E:1,1995-07-01T18:30:00Z,27.3383,-97.1000,2.0,118.9502613,16.01070267,-99999.0,'11111222,11111222,99999999' 
TABS,ioos:station:TABS:E:1,1995-07-01T19:00:00Z,27.3383,-97.1000,2.0,123.2952039,12.47827712,-99999.0,'11111222,11111222,99999999' 
TABS,ioos:station:TABS:E:1,1995-07-01T19:30:00Z,27.3383,-97.1000,2.0,121.7145995,11.90816946,-99999.0,'11111222,11111222,99999999' 
TABS,ioos:station:TABS:E:1,1995-07-01T20:00:00Z,27.3383,-97.1000,2.0,118.6022246,11.19636102,-99999.0,'11111222,11111222,99999999' 
TABS,ioos:station:TABS:E:1,1995-07-01T20:30:00Z,27.3383,-97.1000,2.0,114.12659,12.40351966,-99999.0,'11111222,11111222,99999999' 
TABS,ioos:station:TABS:E:1,1995-07-01T21:00:00Z,27.3383,-97.1000,2.0,119.1936146,11.60398638,-99999.0,'11111222,11111222,99999999' 
TABS,ioos:station:TABS:E:1,1995-07-01T21:30:00Z,27.3383,-97.1000,2.0,124.2705327,7.938167295,-99999.0,'11133222,11111222,99999999' 
TABS,ioos:station:TABS:E:1,1995-07-01T22:00:00Z,27.3383,-97.1000,2.0,151.9673002,5.064118877,-99999.0,'11133222,11111222,99999999' 
TABS,ioos:station:TABS:E:1,1995-07-01T22:30:00Z,27.3383,-97.1000,2.0,134.9998948,4.214356416,-99999.0,'11133222,11111222,99999999' 
TABS,ioos:station:TABS:E:1,1995-07-01T23:00:00Z,27.3383,-97.1000,2.0,158.0659558,1.606268969,-99999.0,'11133222,11111222,99999999' 
TABS,ioos:station:TABS:E:1,1995-07-01T23:30:00Z,27.3383,-97.1000,2.0,84.77408481,3.293690939,-99999.0,'11133222,11111222,99999999' 
TABS,ioos:station:TABS:E:1,1995-07-02T00:00:00Z,27.3383,-97.1000,2.0,73.98225274,2.174419463,-99999.0,'11133222,11111222,99999999' 
TABS,ioos:station:TABS:E:1,1995-07-02T00:30:00Z,27.3383,-97.1000,2.0,35.96513136,4.052505398,-99999.0,'11133222,11111222,99999999' 
TABS,ioos:station:TABS:E:1,1995-07-02T01:00:00Z,27.3383,-97.1000,2.0,8.936424706,5.72954623,-99999.0,'11133222,11111222,99999999' 
TABS,ioos:station:TABS:E:1,1995-07-02T01:30:00Z,27.3383,-97.1000,2.0,102.6192928,2.746343023,-99999.0,'11133222,11111222,99999999' 
TABS,ioos:station:TABS:E:1,1995-07-02T02:00:00Z,27.3383,-97.1000,2.0,90.0,2.68,-99999.0,'11133222,11111222,99999999' 
TABS,ioos:station:TABS:E:1,1995-07-02T02:30:00Z,27.3383,-97.1000,2.0,243.43459,0.670820393,-99999.0,'11133222,11111222,99999999' 
TABS,ioos:station:TABS:E:1,1995-07-02T03:00:00Z,27.3383,-97.1000,2.0,6.387312549,2.696738771,-99999.0,'11133222,11111222,99999999' 
TABS,ioos:station:TABS:E:1,1995-07-02T03:30:00Z,27.3383,-97.1000,2.0,330.2850012,4.801385217,-99999.0,'11133222,11111222,99999999' 
TABS,ioos:station:TABS:E:1,1995-07-02T04:00:00Z,27.3383,-97.1000,2.0,337.8316557,8.692577293,-99999.0,'11133222,11111222,99999999' 
TABS,ioos:station:TABS:E:1,1995-07-02T04:30:00Z,27.3383,-97.1000,2.0,332.2932667,13.46380333,-99999.0,'11111222,11111222,99999999' 
TABS,ioos:station:TABS:E:1,1995-07-02T05:00:00Z,27.3383,-97.1000,2.0,336.4620323,20.15720467,-99999.0,'11111222,11111222,99999999' 
TABS,ioos:station:TABS:E:1,1995-07-02T05:30:00Z,27.3383,-97.1000,2.0,334.0517293,24.52214102,-99999.0,'11111222,11111222,99999999' 
TABS,ioos:station:TABS:E:1,1995-07-02T06:00:00Z,27.3383,-97.1000,2.0,335.1158834,31.86873389,-99999.0,'11111222,11111222,99999999' 
TABS,ioos:station:TABS:E:1,1995-07-02T06:30:00Z,27.3383,-97.1000,2.0,347.8387181,35.36364517,-99999.0,'11111222,11111222,99999999' 
TABS,ioos:station:TABS:E:1,1995-07-02T07:00:00Z,27.3383,-97.1000,2.0,356.1889804,40.3191679,-99999.0,'11111222,11111222,99999999' 
TABS,ioos:station:TABS:E:1,1995-07-02T07:30:00Z,27.3383,-97.1000,2.0,2.002926741,42.63604344,-99999.0,'11111222,11111222,99999999' 
TABS,ioos:station:TABS:E:1,1995-07-02T08:00:00Z,27.3383,-97.1000,2.0,7.919845698,45.43333138,-99999.0,'11111222,11111222,99999999' 
TABS,ioos:station:TABS:E:1,1995-07-02T08:30:00Z,27.3383,-97.1000,2.0,7.479885908,48.08918797,-99999.0,'11111222,11111222,99999999' 
TABS,ioos:station:TABS:E:1,1995-07-02T09:00:00Z,27.3383,-97.1000,2.0,9.514758971,54.08400133,-99999.0,'11111222,11111222,99999999' 
TABS,ioos:station:TABS:E:1,1995-07-02T09:30:00Z,27.3383,-97.1000,2.0,9.565846551,55.60311592,-99999.0,'11111222,11111222,99999999' 
TABS,ioos:station:TABS:E:1,1995-07-02T10:00:00Z,27.3383,-97.1000,2.0,15.20449615,53.41987083,-99999.0,'11111222,11111222,99999999' 
TABS,ioos:station:TABS:E:1,1995-07-02T10:30:00Z,27.3383,-97.1000,2.0,14.60772627,57.89128086,-99999.0,'11111222,11111222,99999999' 
TABS,ioos:station:TABS:E:1,1995-07-02T11:00:00Z,27.3383,-97.1000,2.0,12.55821003,61.67550648,-99999.0,'11111222,11111222,99999999' 
TABS,ioos:station:TABS:E:1,1995-07-02T11:30:00Z,27.3383,-97.1000,2.0,14.03411303,60.20704361,-99999.0,'11111222,11111222,99999999' 
TABS,ioos:station:TABS:E:1,1995-07-02T12:00:00Z,27.3383,-97.1000,2.0,17.57531127,56.26641716,-99999.0,'11111222,11111222,99999999' 
TABS,ioos:station:TABS:E:1,1995-07-02T12:30:00Z,27.3383,-97.1000,2.0,19.03339461,53.90712383,-99999.0,'11111222,11111222,99999999' 
TABS,ioos:station:TABS:E:1,1995-07-02T13:00:00Z,27.3383,-97.1000,2.0,19.40933826,55.61036684,-99999.0,'11111222,11111222,99999999' 
TABS,ioos:station:TABS:E:1,1995-07-02T13:30:00Z,27.3383,-97.1000,2.0,15.28649975,53.14007621,-99999.0,'11111222,11111222,99999999' 
TABS,ioos:station:TABS:E:1,1995-07-02T14:00:00Z,27.3383,-97.1000,2.0,15.40130654,51.62380265,-99999.0,'11111222,11111222,99999999' 
TABS,ioos:station:TABS:E:1,1995-07-02T14:30:00Z,27.3383,-97.1000,2.0,15.65241229,48.59193554,-99999.0,'11111222,11111222,99999999' 
TABS,ioos:station:TABS:E:1,1995-07-02T15:00:00Z,27.3383,-97.1000,2.0,24.12333708,53.21754786,-99999.0,'11111222,11111222,99999999' 
TABS,ioos:station:TABS:E:1,1995-07-02T15:30:00Z,27.3383,-97.1000,2.0,17.82924754,53.5308668,-99999.0,'11111222,11111222,99999999' 
TABS,ioos:station:TABS:E:1,1995-07-02T16:00:00Z,27.3383,-97.1000,2.0,27.66296467,48.78654118,-99999.0,'11111222,11111222,99999999' 
TABS,ioos:station:TABS:E:1,1995-07-02T16:30:00Z,27.3383,-97.1000,2.0,29.42169206,45.49790545,-99999.0,'11111222,11111222,99999999' 
TABS,ioos:station:TABS:E:1,1995-07-02T17:00:00Z,27.3383,-97.1000,2.0,28.93713726,44.9521757,-99999.0,'11111222,11111222,99999999' 
TABS,ioos:station:TABS:E:1,1995-07-02T17:30:00Z,27.3383,-97.1000,2.0,28.49790389,47.4718959,-99999.0,'11111222,11111222,99999999' 
TABS,ioos:station:TABS:E:1,1995-07-02T18:00:00Z,27.3383,-97.1000,2.0,29.19857874,46.42955309,-99999.0,'11111222,11111222,99999999' 
TABS,ioos:station:TABS:E:1,1995-07-02T18:30:00Z,27.3383,-97.1000,2.0,29.27069481,45.09809419,-99999.0,'11111222,11111222,99999999' 
TABS,ioos:station:TABS:E:1,1995-07-02T19:00:00Z,27.3383,-97.1000,2.0,22.74337679,43.94702493,-99999.0,'11111222,11111222,99999999' 
TABS,ioos:station:TABS:E:1,1995-07-02T19:30:00Z,27.3383,-97.1000,2.0,18.5641602,42.12164527,-99999.0,'11111222,11111222,99999999' 
TABS,ioos:station:TABS:E:1,1995-07-02T20:00:00Z,27.3383,-97.1000,2.0,14.52358962,42.78725628,-99999.0,'11111222,11111222,99999999' 
TABS,ioos:station:TABS:E:1,1995-07-02T20:30:00Z,27.3383,-97.1000,2.0,9.02838262,45.56448727,-99999.0,'11111222,11111222,99999999' 
TABS,ioos:station:TABS:E:1,1995-07-02T21:00:00Z,27.3383,-97.1000,2.0,3.788923572,45.09856317,-99999.0,'11111222,11111222,99999999' 
TABS,ioos:station:TABS:E:1,1995-07-02T21:30:00Z,27.3383,-97.1000,2.0,356.8804109,49.24298224,-99999.0,'11111222,11111222,99999999' 
TABS,ioos:station:TABS:E:1,1995-07-02T22:00:00Z,27.3383,-97.1000,2.0,351.2540686,58.79367058,-99999.0,'11111222,11111222,99999999' 
TABS,ioos:station:TABS:E:1,1995-07-02T22:30:00Z,27.3383,-97.1000,2.0,348.8414158,64.6930545,-99999.0,'11111222,11111222,99999999' 
TABS,ioos:station:TABS:E:1,1995-07-02T23:00:00Z,27.3383,-97.1000,2.0,348.7959781,65.92651212,-99999.0,'11111222,11111222,99999999' 
TABS,ioos:station:TABS:E:1,1995-07-02T23:30:00Z,27.3383,-97.1000,2.0,351.3952952,65.69954718,-99999.0,'11111222,11111222,99999999' 
TABS,ioos:station:TABS:E:1,1995-07-03T00:00:00Z,27.3383,-97.1000,2.0,351.2724473,68.73593311,-99999.0,'11111222,11111222,99999999' 
TABS,ioos:station:TABS:E:1,1995-07-03T00:30:00Z,27.3383,-97.1000,2.0,351.734432,70.46197414,-99999.0,'11111222,11111222,99999999' 
TABS,ioos:station:TABS:E:1,1995-07-03T01:00:00Z,27.3383,-97.1000,2.0,350.8581233,69.42184454,-99999.0,'11111222,11111222,99999999' 
TABS,ioos:station:TABS:E:1,1995-07-03T01:30:00Z,27.3383,-97.1000,2.0,352.043563,71.01364517,-99999.0,'11111222,11111222,99999999' 
TABS,ioos:station:TABS:E:1,1995-07-03T02:00:00Z,27.3383,-97.1000,2.0,351.3619952,71.44039334,-99999.0,'11111222,11111222,99999999' 
TABS,ioos:station:TABS:E:1,1995-07-03T02:30:00Z,27.3383,-97.1000,2.0,349.6342017,71.19197286,-99999.0,'11111222,11111222,99999999' 
TABS,ioos:station:TABS:E:1,1995-07-03T03:00:00Z,27.3383,-97.1000,2.0,349.3300906,67.61917553,-99999.0,'11111222,11111222,99999999' 
TABS,ioos:station:TABS:E:1,1995-07-03T03:30:00Z,27.3383,-97.1000,2.0,348.4913562,67.21136585,-99999.0,'11111222,11111222,99999999' 
TABS,ioos:station:TABS:E:1,1995-07-03T04:00:00Z,27.3383,-97.1000,2.0,353.0069529,63.65355371,-99999.0,'11111222,11111222,99999999' 
TABS,ioos:station:TABS:E:1,1995-07-03T04:30:00Z,27.3383,-97.1000,2.0,353.4287061,65.09770656,-99999.0,'11111222,11111222,99999999' 
TABS,ioos:station:TABS:E:1,1995-07-03T05:00:00Z,27.3383,-97.1000,2.0,356.8169369,64.46947572,-99999.0,'11111222,11111222,99999999' 
TABS,ioos:station:TABS:E:1,1995-07-03T05:30:00Z,27.3383,-97.1000,2.0,358.2980539,70.36104746,-99999.0,'11111222,11111222,99999999' 
TABS,ioos:station:TABS:E:1,1995-07-03T06:00:00Z,27.3383,-97.1000,2.0,359.5114211,70.33255932,-99999.0,'11111222,11144222,99999999' 
TABS,ioos:station:TABS:E:1,1995-07-03T06:30:00Z,27.3383,-97.1000,2.0,2.990175156,68.63343209,-99999.0,'11111222,11111222,99999999' 
TABS,ioos:station:TABS:E:1,1995-07-03T07:00:00Z,27.3383,-97.1000,2.0,4.131910555,74.39334379,-99999.0,'11111222,11111222,99999999' 
TABS,ioos:station:TABS:E:1,1995-07-03T07:30:00Z,27.3383,-97.1000,2.0,4.902750785,80.15324136,-99999.0,'11111222,11111222,99999999' 
TABS,ioos:station:TABS:E:1,1995-07-03T08:00:00Z,27.3383,-97.1000,2.0,6.673826334,79.50873222,-99999.0,'11111222,11111222,99999999' 
TABS,ioos:station:TABS:E:1,1995-07-03T08:30:00Z,27.3383,-97.1000,2.0,8.884474542,82.94515417,-99999.0,'11111222,11111222,99999999' 
TABS,ioos:station:TABS:E:1,1995-07-03T09:00:00Z,27.3383,-97.1000,2.0,10.64124429,85.51050052,-99999.0,'11111222,11111222,99999999' 
TABS,ioos:station:TABS:E:1,1995-07-03T09:30:00Z,27.3383,-97.1000,2.0,14.13379522,84.19878918,-99999.0,'11111222,11111222,99999999' 
TABS,ioos:station:TABS:E:1,1995-07-03T10:00:00Z,27.3383,-97.1000,2.0,13.60092968,86.15599341,-99999.0,'11111222,11111222,99999999' 
TABS,ioos:station:TABS:E:1,1995-07-03T10:30:00Z,27.3383,-97.1000,2.0,16.81913496,83.42876722,-99999.0,'11111222,11111222,99999999' 
TABS,ioos:station:TABS:E:1,1995-07-03T11:00:00Z,27.3383,-97.1000,2.0,18.50386116,81.70382672,-99999.0,'11111222,11111222,99999999' 
TABS,ioos:station:TABS:E:1,1995-07-03T11:30:00Z,27.3383,-97.1000,2.0,19.31750268,79.26240218,-99999.0,'11111222,11111222,99999999' 
TABS,ioos:station:TABS:E:1,1995-07-03T12:00:00Z,27.3383,-97.1000,2.0,23.52598722,75.40788818,-99999.0,'11111222,11111222,99999999' 
TABS,ioos:station:TABS:E:1,1995-07-03T12:30:00Z,27.3383,-97.1000,2.0,27.19672423,73.03441654,-99999.0,'11111222,11111222,99999999' 
TABS,ioos:station:TABS:E:1,1995-07-03T13:00:00Z,27.3383,-97.1000,2.0,30.2771646,72.11690509,-99999.0,'11111222,11111222,99999999' 
TABS,ioos:station:TABS:E:1,1995-07-03T13:30:00Z,27.3383,-97.1000,2.0,30.49977878,69.86738581,-99999.0,'11111222,11111222,99999999' 
TABS,ioos:station:TABS:E:1,1995-07-03T14:00:00Z,27.3383,-97.1000,2.0,31.9022406,68.80245417,-99999.0,'11111222,11111222,99999999' 
TABS,ioos:station:TABS:E:1,1995-07-03T14:30:00Z,27.3383,-97.1000,2.0,37.27799467,67.41170892,-99999.0,'11111222,11111222,99999999' 
TABS,ioos:station:TABS:E:1,1995-07-03T15:00:00Z,27.3383,-97.1000,2.0,38.45838734,66.5975893,-99999.0,'11111222,11111222,99999999' 
TABS,ioos:station:TABS:E:1,1995-07-03T15:30:00Z,27.3383,-97.1000,2.0,36.91691576,65.9780221,-99999.0,'11111222,11111222,99999999' 
TABS,ioos:station:TABS:E:1,1995-07-03T16:00:00Z,27.3383,-97.1000,2.0,37.61896534,63.95746399,-99999.0,'11111222,11111222,99999999' 
TABS,ioos:station:TABS:E:1,1995-07-03T16:30:00Z,27.3383,-97.1000,2.0,41.16034543,62.93235098,-99999.0,'11111222,11111222,99999999' 
TABS,ioos:station:TABS:E:1,1995-07-03T17:00:00Z,27.3383,-97.1000,2.0,42.56085638,59.47914761,-99999.0,'11111222,11111222,99999999' 
TABS,ioos:station:TABS:E:1,1995-07-03T17:30:00Z,27.3383,-97.1000,2.0,41.45990811,58.05819236,-99999.0,'11111222,11111222,99999999' 
TABS,ioos:station:TABS:E:1,1995-07-03T18:00:00Z,27.3383,-97.1000,2.0,43.09946132,57.13737831,-99999.0,'11111222,11111222,99999999' 
TABS,ioos:station:TABS:E:1,1995-07-03T18:30:00Z,27.3383,-97.1000,2.0,42.83107307,55.67505186,-99999.0,'11111222,11111222,99999999' 
TABS,ioos:station:TABS:E:1,1995-07-03T19:00:00Z,27.3383,-97.1000,2.0,42.65697974,56.72911069,-99999.0,'11111222,11111222,99999999' 
TABS,ioos:station:TABS:E:1,1995-07-03T19:30:00Z,27.3383,-97.1000,2.0,42.35461445,54.84508547,-99999.0,'11111222,11111222,99999999' 
TABS,ioos:station:TABS:E:1,1995-07-03T20:00:00Z,27.3383,-97.1000,2.0,40.67287883,53.04279216,-99999.0,'11111222,11111222,99999999' 
TABS,ioos:station:TABS:E:1,1995-07-03T20:30:00Z,27.3383,-97.1000,2.0,36.53658833,51.55087293,-99999.0,'11111222,11111222,99999999' 
TABS,ioos:station:TABS:E:1,1995-07-03T21:00:00Z,27.3383,-97.1000,2.0,34.31521782,53.39307071,-99999.0,'11111222,11111222,99999999' 
TABS,ioos:station:TABS:E:1,1995-07-03T21:30:00Z,27.3383,-97.1000,2.0,32.07361787,49.94289539,-99999.0,'11111222,11111222,99999999' 
TABS,ioos:station:TABS:E:1,1995-07-03T22:00:00Z,27.3383,-97.1000,2.0,28.29796022,52.79982008,-99999.0,'11111222,11111222,99999999' 
TABS,ioos:station:TABS:E:1,1995-07-03T22:30:00Z,27.3383,-97.1000,2.0,25.06282346,50.65988255,-99999.0,'11111222,11111222,99999999' 
TABS,ioos:station:TABS:E:1,1995-07-03T23:00:00Z,27.3383,-97.1000,2.0,21.98457554,51.74241297,-99999.0,'11111222,11111222,99999999' 
TABS,ioos:station:TABS:E:1,1995-07-03T23:30:00Z,27.3383,-97.1000,2.0,18.64719039,51.26087202,-99999.0,'11111222,11111222,99999999' 
TABS,ioos:station:TABS:E:1,1995-07-04T00:00:00Z,27.3383,-97.1000,2.0,17.25214581,50.24032643,-99999.0,'11111222,11111222,99999999' 
TABS,ioos:station:TABS:E:1,1995-07-04T00:30:00Z,27.3383,-97.1000,2.0,14.89353816,53.34197784,-99999.0,'11111222,11111222,99999999' 
TABS,ioos:station:TABS:E:1,1995-07-04T01:00:00Z,27.3383,-97.1000,2.0,16.03309895,53.94842444,-99999.0,'11111222,11111222,99999999' 
TABS,ioos:station:TABS:E:1,1995-07-04T01:30:00Z,27.3383,-97.1000,2.0,16.46361178,54.69234407,-99999.0,'11111222,11111222,99999999' 
TABS,ioos:station:TABS:E:1,1995-07-04T02:00:00Z,27.3383,-97.1000,2.0,14.5252959,59.40883857,-99999.0,'11111222,11111222,99999999' 
TABS,ioos:station:TABS:E:1,1995-07-04T02:30:00Z,27.3383,-97.1000,2.0,17.35524723,64.93625567,-99999.0,'11111222,11111222,99999999' 
TABS,ioos:station:TABS:E:1,1995-07-04T03:00:00Z,27.3383,-97.1000,2.0,18.95211648,62.38162871,-99999.0,'11111222,11111222,99999999' 
TABS,ioos:station:TABS:E:1,1995-07-04T03:30:00Z,27.3383,-97.1000,2.0,17.07982958,63.90853621,-99999.0,'11111222,11111222,99999999' 
TABS,ioos:station:TABS:E:1,1995-07-04T04:00:00Z,27.3383,-97.1000,2.0,15.20805389,67.01690309,-99999.0,'11111222,11111222,99999999' 
TABS,ioos:station:TABS:E:1,1995-07-04T04:30:00Z,27.3383,-97.1000,2.0,15.3437959,69.83933634,-99999.0,'11111222,11111222,99999999' 
TABS,ioos:station:TABS:E:1,1995-07-04T05:00:00Z,27.3383,-97.1000,2.0,15.0338992,74.67590843,-99999.0,'11111222,11111222,99999999' 
TABS,ioos:station:TABS:E:1,1995-07-04T05:30:00Z,27.3383,-97.1000,2.0,14.24804834,77.48338467,-99999.0,'11111222,11111222,99999999' 
TABS,ioos:station:TABS:E:1,1995-07-04T06:00:00Z,27.3383,-97.1000,2.0,14.29587779,80.87433338,-99999.0,'11111222,11111222,99999999' 
TABS,ioos:station:TABS:E:1,1995-07-04T06:30:00Z,27.3383,-97.1000,2.0,14.52358962,85.57451256,-99999.0,'11111222,11111222,99999999' 
TABS,ioos:station:TABS:E:1,1995-07-04T07:00:00Z,27.3383,-97.1000,2.0,14.94394184,86.6712761,-99999.0,'11111222,11111222,99999999' 
TABS,ioos:station:TABS:E:1,1995-07-04T07:30:00Z,27.3383,-97.1000,2.0,13.48952473,90.71245615,-99999.0,'11111222,11111222,99999999' 
TABS,ioos:station:TABS:E:1,1995-07-04T08:00:00Z,27.3383,-97.1000,2.0,13.3265467,87.89680597,-99999.0,'11111222,11111222,99999999' 
TABS,ioos:station:TABS:E:1,1995-07-04T08:30:00Z,27.3383,-97.1000,2.0,14.55429616,87.74569733,-99999.0,'11111222,11111222,99999999' 
TABS,ioos:station:TABS:E:1,1995-07-04T09:00:00Z,27.3383,-97.1000,2.0,15.53672188,91.24407762,-99999.0,'11111222,11111222,99999999' 
TABS,ioos:station:TABS:E:1,1995-07-04T09:30:00Z,27.3383,-97.1000,2.0,16.67981541,92.39767584,-99999.0,'11111222,11111222,99999999' 
TABS,ioos:station:TABS:E:1,1995-07-04T10:00:00Z,27.3383,-97.1000,2.0,17.92023867,93.95822529,-99999.0,'11111222,11111222,99999999' 
TABS,ioos:station:TABS:E:1,1995-07-04T10:30:00Z,27.3383,-97.1000,2.0,20.98950055,97.34941705,-99999.0,'11111222,11111222,99999999' 
TABS,ioos:station:TABS:E:1,1995-07-04T11:00:00Z,27.3383,-97.1000,2.0,21.86806034,96.00826839,-99999.0,'11111222,11111222,99999999' 
TABS,ioos:station:TABS:E:1,1995-07-04T11:30:00Z,27.3383,-97.1000,2.0,23.85175723,92.86068813,-99999.0,'11111222,11111222,99999999' 
TABS,ioos:station:TABS:E:1,1995-07-04T12:00:00Z,27.3383,-97.1000,2.0,26.30632665,88.09303321,-99999.0,'11111222,11111222,99999999' 
TABS,ioos:station:TABS:E:1,1995-07-04T12:30:00Z,27.3383,-97.1000,2.0,27.57423426,83.04255355,-99999.0,'11111222,11111222,99999999' 
TABS,ioos:station:TABS:E:1,1995-07-04T13:00:00Z,27.3383,-97.1000,2.0,27.90001454,80.24742301,-99999.0,'11111222,11111222,99999999' 
TABS,ioos:station:TABS:E:1,1995-07-04T13:30:00Z,27.3383,-97.1000,2.0,29.63262555,77.13859021,-99999.0,'11111222,11111222,99999999' 
TABS,ioos:station:TABS:E:1,1995-07-04T14:00:00Z,27.3383,-97.1000,2.0,30.11334762,75.44196511,-99999.0,'11111222,11111222,99999999' 
TABS,ioos:station:TABS:E:1,1995-07-04T14:30:00Z,27.3383,-97.1000,2.0,31.00601873,72.31239797,-99999.0,'11111222,11111222,99999999' 
TABS,ioos:station:TABS:E:1,1995-07-04T15:00:00Z,27.3383,-97.1000,2.0,31.57780195,71.70767462,-99999.0,'11111222,11111222,99999999' 
TABS,ioos:station:TABS:E:1,1995-07-04T15:30:00Z,27.3383,-97.1000,2.0,32.35524091,67.38108043,-99999.0,'11111222,11111222,99999999' 
TABS,ioos:station:TABS:E:1,1995-07-04T16:00:00Z,27.3383,-97.1000,2.0,29.84083059,65.27461068,-99999.0,'11111222,11111222,99999999' 
TABS,ioos:station:TABS:E:1,1995-07-04T16:30:00Z,27.3383,-97.1000,2.0,30.64163985,63.72816724,-99999.0,'11111222,11111222,99999999' 
TABS,ioos:station:TABS:E:1,1995-07-04T17:00:00Z,27.3383,-97.1000,2.0,27.45191302,60.10823321,-99999.0,'11111222,11111222,99999999' 
TABS,ioos:station:TABS:E:1,1995-07-04T17:30:00Z,27.3383,-97.1000,2.0,25.79964002,59.57864131,-99999.0,'11111222,11111222,99999999' 
TABS,ioos:station:TABS:E:1,1995-07-04T18:00:00Z,27.3383,-97.1000,2.0,26.70285445,57.70413677,-99999.0,'11111222,11111222,99999999' 